Theta_e
332 329 328 334 335 336 342 345 356 356 355 354 355 355 356 354 353 355 352 352 351 343
331 333 332 336 342 338 348 343 351 356 356 356 356 355 357 353 354 354 353 352 351 346
329 333 336 335 338 343 348 351 353 355 357 356 355 355 358 355 356 353 351 349 349 348
326 331 333 336 338 340 348 349 347 351 354 354 353 355 356 357 353 352 351 348 348 345
326 329 331 334 339 340 343 345 346 349 351 350 351 355 355 353 351 348 346 345 344 343
324 326 329 333 339 340 341 343 345 348 349 348 350 353 354 352 349 348 346 344 344 342
323 326 328 332 339 340 340 341 346 349 348 348 350 352 352 350 348 347 346 346 344 342
322 325 327 329 340 340 342 343 348 348 348 349 350 349 351 348 347 347 346 345 342 341
320 322 325 330 341 339 341 346 348 350 346 349 347 316 319 340 347 346 344 340 340 340
318 319 322 332 339 338 346 353 353 352 350 351 349 312 313 318 346 343 342 340 338 337
314 317 321 336 337 344 349 353 352 352 352 351 340 309 308 313 345 342 341 339 338 338
316 317 325 336 339 346 349 351 350 349 349 347 331 305 308 323 339 338 338 338 339 338
313 320 331 336 341 344 347 345 346 344 346 330 335 303 306 322 334 335 334 337 338 309
316 330 335 336 338 339 339 339 339 339 342 341 333 319 304 306 334 332 330 332 333 332
Wind_Speed
15 11 12 13 12 12 10 10 11 15 15 18 17 15 15 13 13 13 12 13 11 9
15 15 15 17 15 13 12 13 13 15 16 18 17 17 16 12 13 12 12 12 11 10
15 16 16 16 17 16 14 14 15 16 17 16 17 17 17 12 13 13 11 9 12 10
16 16 16 17 17 17 17 16 18 16 18 18 17 18 17 14 15 14 13 10 11 11
17 16 17 18 19 19 18 17 18 17 18 19 18 18 17 16 14 15 15 15 13 11
18 17 19 19 20 19 19 18 19 19 20 19 19 19 17 16 15 15 15 14 13 11
19 19 19 18 21 19 19 20 20 20 20 19 19 18 17 16 16 15 14 13 12 11
19 20 20 20 21 19 19 19 19 20 20 19 17 15 18 17 16 16 14 12 11 10
18 20 20 19 20 19 20 20 20 20 20 19 14 17 14 17 16 15 14 12 11 11
19 21 18 21 19 20 19 18 18 18 19 19 15 20 17 14 15 14 13 13 12 11
20 19 17 22 20 18 17 18 17 17 18 17 13 20 17 14 15 11 11 13 13 12
20 21 18 21 19 17 16 16 16 17 19 17 16 18 18 13 14 12 13 12 12 11
22 19 18 15 15 15 15 16 15 14 16 17 21 14 17 12 8 12 10 10 10 9
24 20 14 11 10 13 14 14 14 14 14 20 19 14 14 11 12 11 9 10 9 8
Wind_Direction
288 283 279 267 259 254 242 227 219 208 199 207 202 200 197 194 201 193 199 200 220 218
285 275 275 276 275 262 243 250 222 210 207 201 197 196 193 197 190 188 190 195 207 223
283 282 270 267 266 261 260 233 243 206 203 203 197 191 194 181 187 185 189 196 197 207
278 279 279 271 265 259 247 234 224 211 200 194 194 188 194 177 175 186 184 188 188 192
281 277 277 270 264 258 246 231 222 210 199 187 189 186 186 179 176 185 180 183 188 190
280 275 274 268 265 256 244 230 219 208 199 187 184 184 182 178 177 181 180 183 186 187
278 274 272 269 263 249 236 225 212 204 198 186 181 180 175 174 177 178 184 180 186 187
276 277 274 267 256 237 229 220 206 196 194 180 177 177 173 175 172 178 176 172 177 182
280 280 271 266 246 227 220 209 199 191 183 174 179 145 158 165 168 174 169 170 177 160
273 280 265 264 228 215 209 196 192 181 176 171 162 136 139 149 165 169 171 172 174 176
283 273 262 252 212 205 194 186 181 175 169 167 138 139 148 168 158 164 165 173 182 194
284 268 257 226 200 190 180 176 174 169 160 152 146 141 145 160 155 164 173 178 187 187
283 256 229 204 178 177 170 166 161 155 155 141 148 159 161 159 153 166 166 163 155 54
271 220 173 163 158 158 148 145 138 137 137 145 148 159 160 190 167 165 174 173 167 149